User: anonymous   Login
Location: Newark
(43.6486°N, 79.3853°W)
Time: 14:04:35
(UTC+00:00)
Language:

STARLINK-1319 - Orbit

View from above orbital plane
View from above orbital plane
View from above satellite
View from above satellite

Ground track
Ground track

The orbit data is extracted from the following two-line orbital elements,

1 45379U 20019V   20191.91670139 -.00047812 +00000-0 -32804-2 0  9992
2 45379 053.0008 093.6979 0001453 102.6119 101.3028 15.05625626001804
Epoch (UTC): 09 July 2020 22:00:03
Eccentricity: 0.0001453
inclination: 53.0008°
perigee height: 548 km
apogee height: 550 km
right ascension of ascending node: 93.6979°
argument of perigee: 102.6119°
revolutions per day: 15.05625626
mean anomaly at epoch: 101.3028°
orbit number at epoch: 180

The dashed part of the orbit path shows where the satellite is in the earth's shadow,  

DLR